This demonstration page uses our WeatherBlox Daily Observations layout. Learn more.

Left ArrowRight Arrow

39.51506, -84.39828

Hourly Observations for June 5, 2018

Temp ( °F °C ) Dew Point ( °F °C ) Humidity (%) Winds ( mph kmh ) Pressure ( in mb ) Visibility ( mi km ) Precip ( " mm )
12:15 am 00:15 Clear 55 12.8 51 10.6 87 87 Calm 29.94 1014 10 16 0.00 0.00
12:35 am 00:35 Clear 55 12.9 51 10.7 87 87 Calm 29.94 1014 10 16 0.00 0.00
12:55 am 00:55 Clear 55 12.7 51 10.7 88 88 Calm 29.94 1014 10 16 0.00 0.00
1:15 am 01:15 Clear 55 12.5 51 10.6 88 88 Calm 29.94 1014 10 16 0.00 0.00
1:35 am 01:35 Clear 54 12.2 51 10.6 90 90 Calm 29.94 1014 10 16 0.00 0.00
1:55 am 01:55 Clear 53 11.9 51 10.3 90 90 Calm 29.94 1014 10 16 0.00 0.00
2:15 am 02:15 Clear 53 11.8 51 10.3 91 91 Calm 29.94 1014 10 16 0.00 0.00
2:35 am 02:35 Clear 53 11.7 51 10.4 92 92 Calm 29.94 1014 10 16 0.00 0.00
2:55 am 02:55 Clear 51 10.7 49 9.6 93 93 Calm 29.94 1014 10 16 0.00 0.00
3:15 am 03:15 Clear 51 10.8 49 9.7 93 93 Calm 29.91 1013 10 16 0.00 0.00
3:35 am 03:35 Clear 51 10.3 49 9.2 93 93 W 3 6 29.91 1013 10 16 0.00 0.00
3:55 am 03:55 Clear 52 11.1 50 9.9 92 92 Calm 29.91 1013 10 16 0.00 0.00
4:15 am 04:15 Clear 53 11.4 50 10.1 92 92 SW 3 6 29.91 1013 10 16 0.00 0.00
4:35 am 04:35 Clear 53 11.7 51 10.3 91 91 SW 6 9 29.91 1013 10 16 0.00 0.00
4:55 am 04:55 Clear 52 11.2 50 10 92 92 SW 5 7 29.91 1013 10 16 0.00 0.00
5:15 am 05:15 Clear 51 10.4 50 9.8 96 96 Calm 29.91 1013 10 16 0.00 0.00
5:35 am 05:35 Clear 52 11 49 9.7 92 92 S 3 6 29.91 1013 10 16 0.00 0.00
5:55 am 05:55 Clear 51 10.7 50 9.8 94 94 SW 5 7 29.91 1013 10 16 0.00 0.00
6:15 am 06:15 Partly Cloudy 52 11.3 50 10.1 92 92 SSW 6 9 29.91 1013 10 16 0.00 0.00
6:35 am 06:35 Sunny 55 12.8 50 9.9 83 83 S 5 7 29.94 1014 10 16 0.00 0.00
6:55 am 06:55 Partly Cloudy 55 13 51 10.8 87 87 S 5 7 29.94 1014 10 16 0.00 0.00
7:15 am 07:15 Cloudy 55 13 53 11.7 92 92 SW 5 7 29.94 1014 10 16 0.00 0.00
7:35 am 07:35 Mostly Cloudy 57 13.7 54 12.3 91 91 SSW 5 7 29.94 1014 10 16 0.00 0.00
7:55 am 07:55 Mostly Cloudy 58 14.5 54 12.1 86 86 S 5 7 29.94 1014 10 16 0.00 0.00
8:15 am 08:15 Cloudy 58 14.7 55 12.5 87 87 SSW 3 6 29.91 1013 10 16 0.00 0.00
8:35 am 08:35 Cloudy 59 15.2 54 12.2 82 82 SSW 6 9 29.91 1013 10 16 0.00 0.00
8:55 am 08:55 Cloudy 60 15.3 55 12.5 84 84 SSW 3 6 29.91 1013 10 16 0.00 0.00
9:15 am 09:15 Mostly Cloudy 63 17.1 55 12.7 75 75 SSW 6 9 29.91 1013 10 16 0.00 0.00
9:35 am 09:35 Cloudy 65 18.4 55 13 71 71 SSW 7 11 29.91 1013 10 16 0.00 0.00
9:55 am 09:55 Partly Cloudy 69 20.5 58 14.3 68 68 SW 7 11 29.91 1013 10 16 0.00 0.00
10:15 am 10:15 Partly Cloudy 72 22.3 54 12 52 52 W 10 17 29.91 1013 10 16 0.00 0.00
10:35 am 10:35 Mostly Cloudy 72 22 54 12 53 53 W 9 15 29.91 1013 10 16 0.00 0.00
10:55 am 10:55 Cloudy 71 21.5 54 12.4 56 56 WSW 5 7 29.88 1012 10 16 0.00 0.00
11:15 am 11:15 Mostly Cloudy 72 22.2 54 12.4 54 54 WSW 6 9 29.88 1012 10 16 0.00 0.00
11:35 am 11:35 Mostly Cloudy 71 21.9 55 12.5 55 55 WSW 6 9 29.88 1012 10 16 0.00 0.00
11:55 am 11:55 Sunny 73 22.9 56 13.1 54 54 WSW 7 11 29.88 1012 10 16 0.00 0.00
12:15 pm 12:15 Partly Cloudy 75 23.8 54 12.3 49 49 W 15 24 29.85 1011 10 16 0.00 0.00
12:35 pm 12:35 Sunny 74 23.2 55 12.5 51 51 W 10 17 29.85 1011 10 16 0.00 0.00
12:55 pm 12:55 Sunny 76 24.5 56 13.6 51 51 WSW 8 13 29.85 1011 10 16 0.00 0.00
1:15 pm 13:15 Sunny 77 25.1 56 13.2 48 48 WSW 12 19 29.85 1011 10 16 0.00 0.00
1:35 pm 13:35 Sunny 77 25.2 56 13.4 48 48 WSW 9 15 29.85 1011 10 16 0.00 0.00
1:55 pm 13:55 Mostly Cloudy 78 25.4 55 12.5 45 45 WSW 14 22 29.83 1010 10 16 0.00 0.00
2:15 pm 14:15 Sunny 80 26.4 55 12.6 42 42 SW 18 30 29.80 1009 10 16 0.00 0.00
2:35 pm 14:35 Sunny 79 26.3 55 12.6 43 43 SW 13 20 29.83 1010 10 16 0.00 0.00
2:55 pm 14:55 Sunny 79 26 54 12.4 43 43 SW 13 20 29.83 1010 10 16 0.00 0.00
3:15 pm 15:15 Partly Cloudy 78 25.5 54 12.4 44 44 WSW 13 20 29.83 1010 10 16 0.00 0.00
3:35 pm 15:35 Partly Cloudy 77 25.2 55 13 47 47 SW 8 13 29.83 1010 10 16 0.00 0.00
3:55 pm 15:55 Mostly Cloudy with Nearby Thunderstorms 80 26.4 55 12.7 43 43 WSW 13 20 29.80 1009 10 16 0.00 0.00
4:15 pm 16:15 Cloudy with Light Rain 78 25.3 56 13.2 47 47 SW 8 13 29.80 1009 10 16 0.00 0.00
4:35 pm 16:35 Cloudy with Light Rain 78 25.7 59 15.1 52 52 WSW 7 11 29.80 1009 10 16 0.00 0.00
4:55 pm 16:55 Mostly Cloudy 82 27.5 58 14.6 45 45 SW 10 17 29.77 1008 10 16 0.00 0.00
5:15 pm 17:15 Mostly Cloudy 80 26.4 55 13 44 44 W 10 17 29.77 1008 10 16 0.00 0.00
5:35 pm 17:35 Cloudy with Light Rain 78 25.6 54 12.3 44 44 WNW 6 9 29.80 1009 10 16 0.00 0.00
5:55 pm 17:55 Mostly Cloudy 78 25.6 55 12.9 45 45 NNW 7 11 29.80 1009 10 16 0.00 0.00
6:15 pm 18:15 Partly Cloudy 73 23 60 15.7 64 64 NE 12 19 29.80 1009 10 16 0.00 0.00
6:35 pm 18:35 Cloudy with Light Rain 70 20.9 60 15.8 73 73 N 9 15 29.83 1010 10 16 0.00 0.00
6:55 pm 18:55 Mostly Cloudy with Light Rain 69 20.5 62 16.4 77 77 NNE 7 11 29.83 1010 10 16 0.00 0.00
7:15 pm 19:15 Mostly Cloudy 70 20.9 62 16.7 77 77 ENE 8 13 29.83 1010 10 16 0.00 0.00
7:35 pm 19:35 Cloudy 68 20.2 61 15.9 76 76 N 10 17 29.83 1010 10 16 0.00 0.00
7:55 pm 19:55 Mostly Cloudy 68 19.8 63 17 84 84 N 7 11 29.83 1010 10 16 0.00 0.00
8:15 pm 20:15 Cloudy with Light Rain 67 19.5 63 17.1 86 86 Calm 29.83 1010 10 16 0.00 0.00
8:35 pm 20:35 Cloudy 66 19 64 17.7 92 92 N 3 6 29.83 1010 10 16 0.01 0.25
8:55 pm 20:55 Cloudy with Light Rain 66 18.7 64 17.9 95 95 Calm 29.83 1010 10 16 0.01 0.25
9:15 pm 21:15 Cloudy 65 18.6 64 17.8 95 95 Calm 29.83 1010 10 16 0.00 0.00
9:35 pm 21:35 Mostly Cloudy with Light Rain 65 18.4 64 17.8 96 96 Calm 29.83 1010 10 16 0.01 0.25
9:55 pm 21:55 Cloudy 65 18.3 64 17.9 98 98 Calm 29.83 1010 10 16 0.01 0.25
10:15 pm 22:15 Cloudy 65 18.3 64 17.9 98 98 SSW 3 6 29.83 1010 10 16 0.00 0.00
10:35 pm 22:35 Cloudy 65 18.4 64 17.9 97 97 Calm 29.83 1010 10 16 0.00 0.00
10:55 pm 22:55 Cloudy 65 18.5 64 17.9 96 96 Calm 29.83 1010 7 11 0.00 0.00
11:15 pm 23:15 Cloudy 65 18.4 64 17.8 96 96 Calm 29.83 1010 10 16 0.00 0.00
11:35 pm 23:35 Cloudy 65 18.5 64 17.8 96 96 Calm 29.83 1010 10 16 0.00 0.00
11:55 pm 23:55 Cloudy with Mist and Fog 65 18.4 64 17.7 96 96 Calm 29.83 1010 7 11 0.00 0.00

Powered by AerisWeather